Wind_Speed
32 31 31 29 28 26 24 22 21 20 20 20 21 21 22 23 23 24 25 25 26 27 28 29 31 32 32 33 34 33 32 31 30 30 30 30 30 29 29 31 32 33 34
31 30 31 31 30 27 25 24 22 21 22 22 23 24 25 26 27 28 29 29 30 30 32 33 33 34 34 34 33 32 32 30 29 29 30 31 30 29 30 32 33 33 34
32 32 32 31 29 28 26 26 24 24 25 25 25 26 27 28 30 32 33 33 33 33 34 34 34 34 33 32 30 30 30 31 31 31 31 31 31 31 31 32 33 34 36
29 28 29 29 29 29 28 28 27 27 27 27 27 28 29 30 31 33 35 36 35 35 34 33 33 33 33 31 29 29 29 31 30 30 30 31 32 33 33 34 35 36 38
28 28 29 30 31 30 30 29 29 29 29 30 29 30 30 31 33 34 33 34 35 35 34 34 33 32 31 30 31 30 31 31 31 31 32 32 34 35 36 37 39 40 42
27 27 29 30 31 32 32 32 31 31 31 33 32 32 33 34 35 35 35 34 35 35 35 34 32 32 31 32 32 33 33 34 33 34 35 35 37 38 40 41 43 45 47
27 27 29 30 32 33 32 32 32 32 33 34 34 34 34 35 35 35 35 35 35 35 35 34 33 33 33 34 35 36 36 35 37 38 38 39 40 41 43 45 47 49 51
26 27 28 30 32 32 33 34 35 35 36 37 37 36 35 36 37 36 36 37 36 35 34 34 35 36 35 36 37 38 39 39 40 41 41 43 43 45 47 49 50 52 54
25 25 26 27 29 31 34 35 36 37 37 38 39 38 38 38 38 38 38 39 38 38 37 37 37 38 39 40 40 41 42 42 42 43 45 46 47 48 50 52 54 56 57
25 25 25 26 28 30 32 32 34 35 36 38 39 38 38 39 40 40 41 41 41 40 39 39 40 41 42 43 43 43 44 45 46 47 48 49 50 51 53 54 55 56 57
25 26 27 27 28 29 30 31 33 34 36 37 37 37 39 41 42 42 43 42 41 42 42 42 43 44 46 46 45 45 47 47 48 48 49 51 51 52 53 54 55 55 55
26 27 28 29 30 31 32 33 33 34 36 36 37 38 40 41 42 43 43 43 44 44 44 44 45 46 47 47 46 47 48 50 51 51 52 52 53 53 53 54 54 55 55
27 27 28 29 31 32 33 34 35 35 36 38 38 39 41 42 43 43 44 44 45 45 45 46 47 48 47 47 48 49 50 51 51 52 53 53 53 54 54 55 55 56 56
27 29 30 31 32 34 35 35 36 37 38 39 40 41 42 43 43 44 44 45 46 46 46 47 47 47 48 48 49 49 51 51 52 53 54 54 55 55 54 54 55 55 55
27 28 30 31 32 34 35 36 37 38 39 40 41 41 42 43 43 43 44 44 44 45 45 45 45 46 47 48 49 50 51 52 53 53 53 53 53 52 52 51 50 50 49
27 28 30 31 32 33 35 36 37 38 38 39 40 40 41 41 41 41 42 42 42 43 43 43 44 45 46 47 48 49 50 51 51 50 49 49 48 47 47 45 45 43 41
27 28 30 31 32 33 34 35 35 35 35 36 36 37 37 38 38 38 38 39 39 39 40 41 42 43 44 45 47 47 47 46 45 44 43 42 41 39 37 35 33 31 29
25 26 27 28 28 29 30 30 31 32 32 33 34 34 34 35 35 35 36 36 36 37 38 39 40 41 42 42 42 41 40 39 37 37 35 33 31 29 27 26 24 22 21
22 23 23 24 25 26 27 27 28 28 29 30 30 30 30 30 31 31 31 32 33 34 35 36 37 38 38 37 36 34 33 32 31 29 26 23 21 20 19 18 17 16 15
22 23 24 24 24 25 25 25 25 25 26 26 27 27 27 27 27 28 29 30 30 31 31 32 32 32 31 30 29 28 27 25 22 20 17 16 15 15 14 13 13 12 13
19 20 20 21 21 21 22 22 23 23 23 23 24 24 24 24 25 26 26 26 27 27 28 28 28 27 27 26 24 22 20 17 15 14 13 13 12 12 12 12 12 12 13
16 16 17 18 18 19 20 20 21 21 20 20 21 21 21 22 22 23 23 23 24 24 24 23 23 23 21 20 18 16 14 13 12 11 11 11 11 12 12 12 12 13 13
14 14 14 15 16 16 17 17 18 18 19 19 19 19 20 20 20 21 21 21 21 21 20 20 20 18 17 16 14 13 12 10 10 10 10 11 11 12 12 13 13 13 13
11 12 12 12 13 14 15 16 17 17 18 18 18 18 18 18 18 18 18 18 18 18 18 17 16 15 14 13 12 11 10 9 10 10 10 10 10 11 12 12 13 13 14
11 11 11 11 12 14 15 16 17 17 17 17 17 16 16 16 17 17 16 16 16 16 15 14 13 12 11 10 10 9 8 8 8 9 10 10 10 11 11 12 13 13 14
10 10 11 11 13 15 16 16 17 16 16 16 15 15 15 15 15 15 14 14 14 14 13 11 10 9 9 8 8 7 7 7 8 9 9 10 11 11 11 12 13 14 14
Wind_Direction
233 234 233 235 237 239 241 245 247 251 254 256 256 258 261 264 270 274 275 276 278 280 283 284 286 286 287 286 287 288 288 288 287 287 288 284 282 280 280 278 278 279 281
235 237 235 235 239 239 242 243 244 249 255 256 257 261 265 266 271 276 277 278 279 281 285 285 287 288 287 289 289 287 288 284 284 286 285 285 282 280 279 277 276 277 278
234 232 233 235 237 237 241 246 245 250 256 257 257 262 266 270 273 274 274 274 277 279 283 285 286 288 290 290 291 289 286 285 282 282 284 283 283 280 280 278 277 278 278
231 234 235 235 237 241 242 244 245 248 255 258 260 263 266 270 274 275 274 274 277 280 285 289 289 292 292 292 295 295 293 290 285 284 285 284 283 281 281 280 280 280 281
234 237 240 239 241 244 243 244 246 249 255 260 263 266 270 271 275 279 283 282 282 283 287 291 291 290 291 296 298 295 295 293 287 285 285 286 286 284 283 282 281 281 282
237 238 239 242 243 246 245 247 251 253 258 264 268 272 275 279 282 282 286 288 289 288 290 292 290 289 293 298 297 294 293 291 289 288 286 286 285 284 283 281 280 281 281
236 237 238 241 246 248 250 252 255 257 260 265 268 273 276 278 282 286 290 290 291 292 294 293 294 295 296 298 297 294 292 291 290 289 286 285 284 283 283 282 282 282 283
235 237 239 242 245 248 253 256 257 259 260 264 267 272 277 281 284 287 291 292 294 296 296 298 298 299 298 297 296 293 291 291 290 288 287 286 285 284 284 283 283 284 283
235 236 239 243 245 248 252 255 257 259 262 265 268 272 277 282 285 288 291 293 295 295 296 298 299 299 297 296 293 292 291 291 289 287 286 286 285 284 284 284 284 283 283
235 236 239 243 246 249 252 255 258 262 265 267 269 273 277 280 284 286 290 292 293 293 296 297 296 296 296 295 291 289 290 291 289 286 285 286 284 283 284 283 283 283 284
238 239 242 244 247 250 253 257 260 264 266 269 270 274 277 280 283 286 288 290 292 293 294 294 293 294 294 293 290 288 288 287 287 286 286 286 285 284 284 283 283 283 284
240 243 246 249 251 253 256 259 262 265 268 270 273 275 278 281 283 286 288 290 291 291 290 289 291 291 291 290 288 286 286 286 287 287 288 288 288 286 285 285 286 286 286
243 246 249 251 254 257 259 262 265 267 271 273 276 278 279 282 284 286 287 288 287 287 288 288 289 289 288 288 287 289 289 289 289 289 289 289 289 288 286 286 287 287 287
248 250 253 255 258 259 261 264 267 269 272 274 276 278 280 282 284 284 285 285 286 287 287 288 289 289 288 290 290 292 292 292 292 292 290 290 291 290 289 289 289 289 289
255 257 258 260 261 263 265 267 269 271 273 275 276 277 278 280 281 282 284 285 286 287 288 289 290 289 291 293 294 295 295 295 295 294 292 292 293 292 292 292 292 292 292
258 258 259 261 262 265 267 269 270 271 273 274 275 276 277 278 280 282 284 285 287 289 290 291 293 295 296 298 298 298 298 298 297 295 294 294 294 294 295 295 297 297 296
259 261 262 264 265 266 267 269 270 271 272 273 275 276 278 279 281 284 286 287 289 291 294 296 298 300 300 300 300 300 300 300 299 299 298 298 298 299 301 303 304 304 304
262 264 264 265 265 266 269 271 272 272 272 274 276 278 279 281 284 286 288 290 293 296 298 299 300 301 302 303 303 304 303 303 303 302 302 303 305 307 308 310 311 312 313
265 266 267 268 270 271 271 273 275 274 275 276 278 280 282 284 287 289 292 294 297 300 301 303 304 305 306 307 307 307 307 307 308 309 310 313 316 319 321 322 323 324 326
270 269 269 270 273 275 277 277 279 279 280 282 282 284 287 289 291 294 297 299 301 303 305 306 308 310 310 310 310 311 312 313 316 320 323 326 330 334 337 338 338 339 340
272 271 272 274 276 278 279 281 282 283 283 284 287 289 291 293 296 298 300 302 304 306 308 310 312 313 313 314 315 316 318 322 326 331 336 340 344 348 351 352 353 353 351
272 274 277 278 278 279 282 283 284 285 287 288 291 294 296 297 299 301 303 305 306 309 311 313 315 317 317 319 320 322 325 330 335 340 345 349 353 357 359 358 357 357 358
282 284 285 285 284 285 287 288 288 290 292 293 294 295 296 298 300 302 304 306 308 310 312 314 317 319 321 324 325 326 329 334 339 343 347 352 356 358 359 358 356 357 357
286 287 288 290 292 294 295 296 296 296 295 295 294 294 296 298 300 303 305 307 308 311 313 316 319 321 324 327 328 329 332 336 342 348 353 357 0 0 358 358 356 356 354
298 297 299 301 302 302 302 300 299 298 296 294 293 294 297 299 302 304 305 306 309 312 315 318 320 323 327 331 334 338 344 350 354 358 2 2 0 358 355 354 354 353 352
315 311 310 309 307 306 304 303 301 299 296 293 292 293 297 300 302 303 305 307 309 312 315 317 320 324 328 334 341 348 355 0 1 0 0 359 357 354 353 354 354 354 353
Height
5836 5838 5841 5843 5848 5852 5854 5856 5858 5860 5862 5863 5864 5866 5866 5867 5868 5869 5869 5869 5868 5868 5867 5867 5866 5864 5862 5861 5859 5857 5856 5855 5853 5852 5851 5850 5849 5848 5847 5846 5845 5845 5843
5831 5834 5836 5838 5843 5847 5849 5851 5853 5855 5857 5858 5859 5861 5861 5862 5863 5863 5863 5863 5862 5862 5861 5860 5859 5857 5856 5854 5853 5851 5850 5848 5847 5845 5844 5843 5843 5841 5840 5839 5838 5837 5836
5826 5827 5829 5831 5837 5840 5843 5846 5849 5851 5852 5853 5854 5855 5856 5857 5857 5857 5856 5856 5856 5854 5853 5852 5852 5851 5849 5847 5845 5844 5842 5841 5840 5838 5837 5836 5835 5833 5833 5831 5830 5829 5828
5820 5822 5823 5827 5832 5835 5838 5840 5843 5845 5846 5847 5849 5849 5850 5850 5850 5850 5849 5849 5849 5848 5846 5845 5844 5844 5843 5841 5839 5838 5836 5834 5832 5831 5830 5829 5827 5826 5826 5824 5823 5821 5819
5817 5819 5820 5824 5827 5830 5831 5834 5837 5839 5841 5842 5842 5842 5843 5843 5843 5843 5842 5842 5842 5841 5840 5838 5837 5837 5836 5834 5833 5832 5830 5828 5826 5824 5823 5821 5820 5819 5817 5816 5815 5812 5810
5813 5814 5817 5820 5823 5825 5826 5829 5831 5834 5835 5836 5836 5837 5837 5838 5837 5836 5836 5835 5834 5834 5833 5832 5830 5829 5828 5827 5826 5824 5823 5821 5819 5816 5815 5813 5812 5810 5808 5806 5805 5802 5800
5808 5810 5812 5815 5818 5820 5821 5823 5826 5828 5829 5830 5831 5831 5831 5831 5831 5830 5829 5828 5827 5826 5825 5825 5823 5822 5821 5819 5818 5816 5814 5812 5810 5808 5806 5804 5802 5800 5798 5796 5793 5790 5787
5804 5806 5808 5811 5813 5815 5817 5819 5820 5822 5823 5824 5824 5824 5825 5824 5823 5822 5822 5821 5820 5819 5817 5816 5815 5813 5812 5810 5809 5807 5805 5803 5801 5799 5796 5794 5792 5789 5786 5784 5781 5777 5774
5799 5801 5803 5805 5808 5810 5811 5813 5814 5816 5817 5817 5818 5818 5818 5817 5816 5815 5815 5813 5812 5811 5810 5808 5806 5804 5803 5801 5799 5797 5795 5793 5790 5788 5785 5783 5780 5777 5774 5770 5767 5764 5760
5795 5796 5798 5800 5802 5804 5805 5807 5808 5809 5809 5810 5810 5811 5811 5810 5809 5808 5807 5805 5804 5803 5801 5799 5797 5795 5793 5791 5789 5787 5784 5782 5780 5777 5774 5770 5767 5764 5760 5756 5752 5748 5744
5790 5792 5793 5795 5797 5798 5800 5801 5802 5802 5803 5803 5803 5803 5803 5802 5801 5800 5799 5797 5795 5793 5791 5789 5788 5785 5783 5781 5778 5776 5773 5770 5767 5764 5762 5758 5754 5750 5745 5741 5737 5732 5729
5785 5786 5788 5789 5791 5792 5793 5794 5795 5796 5796 5796 5796 5795 5795 5794 5793 5791 5790 5788 5786 5784 5782 5780 5778 5776 5773 5770 5768 5765 5762 5759 5756 5752 5748 5744 5740 5736 5731 5726 5722 5717 5713
5779 5780 5782 5783 5785 5786 5787 5787 5787 5788 5788 5788 5788 5787 5786 5785 5783 5782 5780 5778 5776 5774 5772 5769 5767 5765 5762 5759 5757 5753 5750 5746 5742 5738 5734 5730 5726 5721 5716 5711 5706 5701 5696
5773 5774 5775 5776 5777 5778 5779 5779 5780 5780 5780 5779 5779 5778 5777 5775 5774 5772 5770 5768 5766 5764 5762 5759 5757 5754 5751 5748 5744 5741 5737 5733 5728 5724 5719 5715 5710 5705 5700 5695 5690 5685 5680
5766 5767 5768 5769 5769 5770 5770 5771 5771 5770 5770 5769 5769 5768 5767 5765 5764 5762 5760 5758 5756 5754 5751 5749 5746 5743 5740 5736 5732 5728 5724 5719 5714 5709 5705 5700 5695 5689 5684 5679 5674 5670 5665
5759 5759 5760 5761 5761 5761 5762 5761 5761 5761 5760 5760 5759 5758 5757 5755 5754 5752 5750 5748 5746 5744 5741 5739 5735 5732 5728 5724 5720 5716 5711 5706 5701 5696 5690 5685 5680 5675 5670 5665 5660 5656 5653
5752 5752 5752 5753 5753 5753 5753 5753 5752 5752 5751 5750 5750 5749 5748 5746 5745 5743 5741 5739 5737 5735 5732 5729 5725 5721 5718 5713 5709 5704 5699 5693 5688 5683 5678 5672 5668 5663 5658 5654 5650 5646 5643
5745 5745 5745 5745 5745 5744 5744 5744 5744 5743 5743 5742 5741 5740 5739 5738 5736 5735 5733 5731 5728 5726 5723 5720 5716 5712 5708 5703 5698 5693 5688 5683 5677 5672 5667 5663 5658 5654 5650 5647 5643 5640 5637
5738 5738 5738 5738 5737 5737 5737 5736 5736 5735 5735 5734 5733 5732 5731 5729 5728 5726 5724 5722 5720 5717 5714 5711 5707 5703 5698 5694 5689 5684 5679 5674 5669 5664 5660 5656 5653 5649 5645 5642 5639 5637 5634
5732 5732 5732 5731 5731 5730 5730 5730 5729 5728 5727 5727 5726 5725 5723 5722 5721 5719 5717 5715 5712 5709 5706 5703 5699 5695 5691 5686 5681 5677 5672 5668 5663 5660 5656 5653 5649 5646 5643 5640 5638 5635 5633
5727 5727 5726 5726 5725 5724 5724 5723 5723 5722 5721 5720 5719 5718 5717 5715 5714 5712 5710 5708 5705 5702 5700 5696 5693 5689 5684 5680 5676 5671 5668 5664 5660 5657 5654 5651 5648 5645 5643 5640 5637 5635 5632
5723 5722 5721 5721 5720 5719 5719 5718 5717 5716 5715 5714 5713 5712 5711 5709 5708 5706 5704 5701 5699 5696 5693 5690 5687 5683 5679 5676 5672 5668 5665 5662 5659 5656 5653 5651 5648 5645 5642 5640 5637 5634 5632
5719 5718 5717 5716 5716 5715 5714 5713 5712 5711 5710 5709 5707 5706 5705 5704 5702 5700 5698 5696 5694 5691 5688 5686 5683 5679 5676 5673 5669 5666 5663 5661 5658 5655 5653 5650 5648 5645 5642 5640 5637 5634 5631
5715 5715 5714 5713 5712 5711 5709 5708 5707 5706 5705 5703 5702 5701 5700 5698 5697 5695 5693 5691 5689 5687 5684 5682 5679 5676 5673 5671 5668 5665 5662 5660 5658 5655 5652 5650 5647 5645 5642 5640 5637 5634 5631
5713 5711 5710 5709 5708 5707 5705 5704 5702 5701 5700 5698 5697 5696 5695 5693 5692 5690 5689 5687 5685 5683 5681 5678 5676 5674 5672 5669 5666 5664 5662 5659 5657 5655 5652 5650 5647 5645 5642 5640 5637 5634 5631
5710 5708 5707 5706 5704 5703 5701 5699 5697 5696 5694 5693 5692 5691 5690 5689 5688 5686 5685 5683 5681 5679 5677 5675 5674 5672 5670 5668 5666 5664 5662 5659 5657 5655 5653 5650 5648 5645 5643 5640 5637 5634 5631